Location: Fort Worth, Tx
(32.7431°N, 97.3695°W)
Time: 04:11:16
(UTC-05:00)

Tiros 1 - Visible Passes

Search period start: 23 February 2024 00:00
Search period end: 04 March 2024 00:00
Orbit: 625 x 658 km, 48.4° (Epoch: 22 February)

Date Brightness Start Highest point End Pass type
(mag) Time Alt. Az. Time Alt. Az. Time Alt. Az.
23 Feb 9.4 05:23:14 20° ESE 05:23:14 20° ESE 05:24:46 10° ESE visible
23 Feb 8.5 07:00:50 20° WSW 07:01:56 21° SW 07:05:28 10° S visible
23 Feb 8.8 21:05:49 10° SSW 21:08:00 22° S 21:08:00 22° S visible
24 Feb 9.0 05:47:19 23° SSE 05:47:19 23° SSE 05:49:05 10° SE visible
24 Feb 8.3 21:29:20 10° SW 21:32:14 37° SSW 21:32:14 37° SSW visible
25 Feb 9.3 06:11:30 14° S 06:11:30 14° S 06:12:23 10° S visible
25 Feb 8.3 20:12:40 10° S 20:16:32 25° SE 20:18:47 18° E visible
25 Feb 8.9 21:53:46 10° WSW 21:56:24 30° W 21:56:24 30° W visible
26 Feb 7.2 20:35:57 10° SW 20:40:37 62° SE 20:42:50 30° ENE visible
26 Feb 9.8 22:18:56 10° W 22:20:26 17° WNW 22:20:26 17° WNW visible
27 Feb 7.6 21:00:14 10° WSW 21:04:54 58° NW 21:06:46 34° NNE visible
28 Feb 8.7 21:25:16 10° W 21:29:26 30° NNW 21:30:35 26° N visible
29 Feb 7.5 20:06:42 10° WSW 20:11:25 67° NW 20:16:11 10° NE visible
29 Feb 9.4 21:50:53 10° WNW 21:54:12 18° NNW 21:54:16 18° NNW visible
01 Mar 8.6 20:31:37 10° W 20:35:54 33° NNW 20:40:13 10° NE visible
01 Mar 10.0 22:16:50 10° NW 22:17:51 12° NNW 22:17:51 12° NNW visible
02 Mar 9.3 20:57:08 10° WNW 21:00:37 20° NNW 21:03:47 11° NNE visible
03 Mar 9.6 21:23:03 10° NW 21:25:33 14° NNW 21:27:12 12° N visible
